Location: Munkebjergskolens Observatorium
(55.3864°N, 10.3987°E)
Time: 22:24:37
(UTC+01:00)

DELTA 1 DEB - Pass Details

Date: 03 December 2023
Orbit: 783 x 826 km, 98.9° (Epoch: 04 March)

Event Time Altitude Azimuth Distance (km) Brightness Sun altitude
Rises 17:52:16 0° 166° (SSE) 3,286 ? -15.9°
Reaches altitude 10° 17:54:35 10° 168° (SSE) 2,367 ? -16.2°
Maximum altitude 17:59:49 76° 255° (WSW) 835 ? -16.9°
Drops below altitude 10° 18:05:09 10° 341° (NNW) 2,413 ? -17.6°
Sets 18:07:32 0° 343° (NNW) 3,356 ? -18.0°
